RH
25 26 26 20 25 21 22 31 32 31 29 30 30 29 25 24 24 25 22 22 19 19 18 26 58 68 70 76 78 80 84 88 90 96 97 94 94 97 97 96 96 94 95 98
34 34 23 19 25 25 25 25 25 23 27 28 27 27 22 22 23 22 21 19 18 19 19 24 50 81 87 84 80 84 81 87 85 83 88 80 93 97 95 94 91 90 95 94
33 27 25 25 23 25 25 27 26 24 25 29 32 26 17 14 19 18 20 19 19 23 25 25 34 68 86 85 87 86 84 87 83 77 81 90 91 95 97 97 96 96 94 93
24 20 27 34 30 22 26 23 24 26 32 29 25 20 18 16 15 23 22 30 38 41 38 30 28 56 78 85 83 85 86 85 85 83 81 86 86 84 92 93 94 98 96 96
24 29 29 30 32 27 30 24 26 27 30 30 23 26 19 23 23 21 41 45 48 53 51 38 30 42 64 79 86 87 81 84 86 85 85 87 85 88 91 95 96 98 96 97
24 18 23 21 22 24 23 23 25 28 28 32 24 23 21 19 20 42 47 49 51 51 56 58 49 58 67 79 88 85 79 84 87 86 86 86 82 83 91 96 97 98 98 97
23 21 16 27 24 27 24 28 35 42 43 38 29 29 21 24 33 45 52 53 55 52 57 61 64 72 75 87 87 84 81 91 86 86 82 78 80 82 83 88 97 98 98 97
45 36 17 14 24 31 30 30 37 37 43 33 31 33 25 23 26 47 53 53 52 54 62 66 67 73 77 85 86 86 84 89 87 83 80 76 78 81 84 90 88 94 95 94
61 31 20 17 20 31 41 39 28 39 50 48 39 34 33 39 51 53 57 55 58 62 72 70 70 76 75 80 86 87 86 84 87 82 79 84 88 87 94 89 88 92 93 94
83 78 39 31 15 20 32 31 46 42 44 47 39 45 31 53 60 57 62 60 59 66 73 76 75 78 76 80 84 87 81 80 82 81 83 82 89 88 91 91 91 94 96 94
99 77 49 46 26 20 23 36 36 34 41 35 36 34 42 44 53 61 64 59 60 65 70 77 83 85 85 86 88 87 83 81 84 83 82 87 87 87 92 93 93 92 96 94
97 95 76 42 70 70 25 24 32 40 44 40 35 34 59 61 60 59 67 59 56 52 61 66 77 88 92 90 88 90 89 89 83 85 80 83 85 87 88 94 93 94 96 96
99 93 86 58 60 59 78 51 42 31 47 38 48 36 62 61 60 67 70 63 61 54 53 57 68 80 84 93 89 88 87 85 84 86 82 89 90 88 88 89 92 94 95 96
95 100 97 72 71 66 80 81 74 55 39 33 41 65 71 65 62 66 71 71 69 59 54 56 64 70 78 84 93 90 86 79 78 83 83 88 88 85 88 90 92 93 92 92
78 97 97 81 54 58 69 76 81 74 56 37 30 40 60 61 63 64 69 67 68 65 64 66 80 81 79 85 86 86 89 85 79 80 82 87 84 82 85 90 91 92 93 91
59 83 85 87 61 45 54 72 72 54 67 63 61 70 70 65 68 71 70 66 73 77 75 77 82 86 85 84 85 78 82 83 87 81 85 81 83 82 84 87 89 91 92 92
73 77 72 58 58 62 58 72 70 58 56 58 58 67 75 82 82 77 74 74 75 73 71 73 76 82 84 88 86 88 81 77 83 88 83 87 86 82 85 83 84 86 88 89
77 74 71 74 66 70 38 55 50 63 65 54 65 71 71 77 79 78 72 75 77 74 74 75 78 76 75 76 81 79 75 79 82 85 88 86 87 90 84 83 86 85 84 88
76 69 78 80 67 48 56 51 55 62 68 63 69 75 78 73 67 86 76 75 78 77 74 74 72 74 72 74 72 72 78 78 80 86 86 89 93 91 91 90 90 88 91 92
69 71 75 65 75 68 48 41 43 56 70 75 69 82 75 71 93 85 83 77 75 72 73 75 73 68 71 73 73 79 81 82 88 90 90 88 90 94 95 93 92 94 94 97
80 83 81 74 74 56 44 44 55 66 74 76 80 84 83 89 84 83 76 75 72 73 72 70 71 72 72 71 71 79 82 89 87 85 86 87 88 91 95 96 98 99 99 99
92 91 85 78 83 69 50 54 71 74 74 66 68 72 85 90 87 83 78 80 78 75 72 72 77 76 72 73 75 79 84 79 80 82 85 86 89 91 92 98 99 99 98 98
95 95 92 69 60 61 80 87 79 77 71 76 79 83 86 88 86 80 81 79 78 76 76 75 74 76 74 73 79 87 84 78 80 82 84 85 86 90 92 97 98 98 98 98
86 90 99 96 74 81 90 85 83 80 85 84 82 81 79 86 84 82 77 76 77 80 80 76 75 77 80 74 76 80 80 77 78 83 85 86 90 91 91 92 94 95 97 96
95 99 100 92 78 88 92 90 78 77 80 76 80 80 80 78 79 78 79 80 82 80 76 75 79 81 79 75 77 77 77 77 81 85 86 88 89 90 93 96 95 96 98 92
98 100 98 99 99 99 97 95 95 94 88 79 80 86 82 78 83 81 82 80 79 80 76 77 83 84 78 74 77 79 76 75 80 84 86 90 89 90 89 90 96 96 95 95
Wind_Speed
5 7 21 18 19 18 12 11 14 5 2 6 13 21 17 13 11 11 14 15 17 18 17 10 6 3 6 10 15 18 18 17 12 9 7 7 7 6 6 7 9 11 10 8
6 20 11 11 15 15 16 20 25 13 11 11 19 28 20 17 18 19 19 18 18 17 15 12 7 5 8 10 14 16 17 18 13 10 7 6 5 4 6 7 10 13 12 13
18 27 18 11 10 17 20 23 17 18 7 10 9 30 21 18 20 18 15 18 15 12 14 15 10 9 9 13 14 16 18 19 15 14 9 5 5 3 5 7 6 10 13 14
18 26 13 9 19 15 18 11 17 15 9 11 6 13 3 9 12 9 9 5 7 9 11 14 13 11 13 11 12 14 16 17 14 13 11 10 8 8 5 6 6 6 11 12
12 5 18 23 19 15 9 10 15 16 15 10 15 10 1 4 5 1 5 5 8 10 11 12 12 10 9 13 12 14 16 16 14 15 12 9 10 5 4 4 8 8 9 10
25 14 10 19 12 20 6 6 5 3 6 9 13 12 3 9 6 7 4 6 7 12 12 12 8 5 8 10 11 14 16 14 13 15 14 14 11 8 6 6 6 5 6 8
11 23 16 9 12 13 17 12 7 7 7 9 6 12 10 7 5 8 8 6 8 11 13 12 10 1 5 9 11 12 14 12 12 14 13 11 10 11 10 9 5 8 6 7
9 9 21 16 18 13 19 17 9 10 8 7 9 10 7 12 10 9 6 7 10 14 13 13 9 3 5 9 10 12 13 11 12 13 12 9 10 7 6 7 6 7 7 9
5 7 5 10 12 16 9 18 15 3 1 3 6 5 8 8 14 8 5 10 14 14 15 17 10 3 4 8 10 11 12 12 12 13 10 8 7 7 5 7 6 6 7 9
3 7 6 1 15 12 10 17 10 6 9 7 4 3 4 12 13 10 8 12 11 12 16 17 13 6 0 5 8 9 12 13 13 12 9 7 7 5 5 6 7 6 7 13
7 4 2 5 7 19 12 12 7 9 5 10 9 5 4 1 14 11 11 11 11 14 16 17 13 7 1 5 7 8 10 11 11 11 9 9 7 6 4 5 5 7 6 11
4 5 7 12 4 1 10 21 10 11 13 7 5 5 3 6 10 10 11 11 12 16 17 16 14 10 2 5 7 8 8 9 10 10 11 9 7 7 7 6 5 6 6 7
7 3 5 6 3 6 7 4 5 14 1 14 9 5 4 7 9 9 13 9 8 14 19 16 15 13 12 0 6 7 9 10 10 11 12 10 9 8 8 8 8 6 6 6
1 4 9 3 4 2 1 3 6 5 12 15 8 7 10 8 8 9 11 10 8 10 14 16 14 11 11 12 4 4 7 9 11 12 11 12 12 11 9 8 8 8 8 9
2 3 7 14 7 1 3 2 3 2 3 14 16 12 12 11 6 9 10 9 10 9 11 11 12 10 13 13 13 10 6 8 10 11 11 11 11 11 11 9 8 8 8 8
8 4 3 3 13 6 1 0 5 3 2 4 6 4 3 4 10 9 10 11 12 10 10 12 12 11 12 12 13 13 9 8 6 10 10 10 11 11 12 12 11 10 10 10
6 7 9 5 6 7 5 2 1 2 4 3 5 4 7 11 12 9 11 11 11 10 10 11 10 10 10 11 14 14 13 10 9 7 7 9 11 12 13 12 13 13 13 11
7 9 4 7 10 4 1 4 6 2 11 7 6 10 9 12 13 13 11 11 10 10 9 10 9 10 10 9 9 9 9 11 10 11 7 6 10 11 12 13 13 14 13 13
12 3 4 3 6 4 2 4 2 1 2 1 11 11 13 13 12 13 11 11 10 10 9 9 8 8 9 12 12 8 9 10 11 12 11 10 10 8 12 13 12 11 10 9
5 5 3 4 4 3 2 6 4 3 1 2 12 11 12 8 4 2 8 11 12 12 10 8 9 10 12 12 11 12 12 11 11 11 10 10 9 10 9 12 12 9 9 7
3 2 6 6 4 6 5 12 7 2 4 6 12 9 10 4 1 8 8 10 9 9 10 9 9 9 11 12 11 11 11 13 13 12 10 10 9 7 11 7 5 7 7 9
3 3 2 2 3 7 14 9 5 3 2 4 9 3 6 13 10 9 7 7 8 8 10 10 8 9 11 12 12 11 12 12 11 11 10 9 9 7 7 8 7 7 9 11
3 1 4 5 4 4 9 8 8 6 1 4 7 9 13 12 9 8 7 8 8 9 9 9 9 9 11 11 11 11 12 12 11 11 12 12 12 12 11 9 8 8 8 7
4 6 5 4 1 3 11 7 10 10 12 11 12 12 11 12 9 9 7 7 8 8 9 9 9 11 11 12 12 11 10 9 9 9 9 9 10 10 10 8 7 7 7 8
5 7 6 6 5 6 15 14 10 11 14 13 16 14 12 11 10 8 7 7 6 7 9 9 10 10 11 11 11 11 11 9 8 8 8 9 8 10 11 12 8 8 8 9
4 5 5 4 10 3 7 13 15 13 10 9 17 12 11 10 10 9 7 7 7 8 9 9 10 9 10 11 11 11 10 8 6 8 8 7 7 8 9 10 14 26 22 24
Wind_Direction
199 217 223 206 213 232 240 244 252 248 222 268 263 267 270 271 272 264 270 271 272 268 269 267 268 266 197 185 182 177 171 169 162 155 167 189 199 187 186 193 183 186 195 197
199 234 231 207 208 217 226 243 253 261 257 272 271 270 273 267 260 259 259 264 261 261 267 272 250 208 196 190 191 176 172 165 169 169 170 182 180 190 191 199 195 202 200 195
218 241 207 206 204 215 229 234 251 253 258 254 279 278 269 258 251 260 253 250 266 278 281 281 269 219 197 198 194 179 171 167 168 175 162 127 166 149 183 198 206 210 209 203
235 255 225 197 224 208 238 217 234 236 228 251 211 281 242 299 267 233 256 342 318 316 296 274 268 228 199 200 193 179 168 165 168 166 171 176 197 196 186 202 204 197 201 198
236 254 204 221 208 186 230 194 210 221 226 254 239 270 302 245 232 220 83 20 2 346 348 302 282 258 203 176 174 175 173 168 169 177 170 173 201 192 175 190 199 193 187 183
255 283 235 222 206 210 171 135 138 142 193 240 234 225 206 219 229 142 95 59 39 25 7 1 336 215 188 170 170 182 172 173 174 179 176 185 203 210 203 210 208 191 184 171
275 234 237 229 204 193 185 173 188 206 200 238 216 203 260 244 205 146 122 76 41 29 23 10 11 196 163 171 186 184 176 168 179 183 186 190 204 219 217 212 200 167 170 166
271 272 210 224 216 190 192 187 188 209 208 231 158 220 240 244 173 136 106 64 44 28 20 13 4 172 181 177 186 178 177 167 169 179 179 180 202 215 224 207 188 177 169 162
251 254 207 210 194 171 180 200 200 153 61 188 196 228 265 148 138 140 85 48 36 26 20 16 26 69 157 194 178 177 171 162 170 180 168 170 185 205 193 188 189 160 157 153
270 270 220 117 185 232 190 186 184 218 210 206 194 209 188 177 155 147 88 62 44 36 35 31 31 45 232 172 174 180 170 169 171 175 157 166 164 184 179 164 171 161 156 154
296 249 279 153 189 201 208 195 191 197 213 217 225 220 233 267 171 144 108 85 66 52 48 40 26 25 102 152 164 160 152 166 170 176 158 149 153 166 156 148 153 164 151 162
319 320 263 242 98 51 221 212 193 198 187 217 220 193 331 152 145 135 129 117 95 74 60 45 36 19 82 145 150 147 148 174 180 170 171 158 159 161 165 148 148 153 157 159
330 332 286 208 203 56 35 23 280 245 21 219 217 219 115 139 136 142 134 114 88 78 71 57 41 22 11 249 173 163 172 182 179 176 169 156 174 179 177 171 159 155 154 152
271 308 318 30 25 334 166 296 353 230 213 220 219 159 182 179 146 126 125 110 91 70 69 59 50 30 19 11 27 188 198 200 197 190 176 164 178 189 182 170 168 166 163 164
267 320 325 345 338 145 245 343 9 24 246 208 222 221 196 195 181 143 125 114 94 71 53 56 49 30 22 14 4 3 351 216 203 197 184 180 183 189 183 177 175 168 170 173
334 285 331 262 304 311 188 300 11 9 112 72 129 161 276 202 126 133 109 108 83 59 48 40 53 28 35 8 351 351 356 356 304 208 198 192 190 186 190 186 185 180 180 173
296 341 335 293 332 306 56 273 78 317 342 335 228 143 142 125 123 110 105 92 85 69 50 48 36 35 26 12 356 342 339 349 348 230 202 192 198 195 191 190 187 190 190 183
278 318 288 296 314 73 203 29 186 110 287 263 146 135 122 108 93 73 62 83 73 63 44 39 27 21 12 22 7 322 345 7 8 18 358 208 203 198 197 194 193 193 194 189
215 267 286 319 319 296 77 54 76 153 270 70 143 128 116 112 97 64 59 63 65 59 40 35 30 28 9 9 355 357 21 23 14 9 3 353 337 223 201 197 196 190 183 187
153 249 279 333 317 314 89 322 293 207 243 129 139 133 107 47 71 65 53 49 43 43 30 15 27 25 23 11 353 6 13 25 9 357 359 337 342 326 256 198 192 183 181 173
336 349 251 265 282 292 315 316 306 287 16 115 117 109 106 123 179 96 67 57 47 43 32 17 30 32 17 7 5 19 11 10 350 354 1 358 359 332 298 214 160 146 120 110
293 313 249 203 234 256 359 330 29 323 292 153 142 158 115 117 100 90 78 65 52 41 30 23 29 26 22 15 8 14 8 353 356 4 8 7 359 13 5 54 64 84 116 116
275 244 295 244 251 345 347 313 319 269 211 4 100 114 123 121 115 100 75 52 45 37 29 20 25 23 24 18 16 14 1 358 5 18 14 13 13 17 24 37 65 80 84 97
290 250 246 281 48 27 12 10 36 45 79 72 93 97 99 102 94 82 66 48 35 27 24 15 19 28 21 11 11 9 4 3 16 31 30 28 38 36 35 41 44 69 87 97
252 284 278 238 7 306 23 15 39 49 65 68 64 70 86 100 92 92 74 54 41 26 22 23 23 20 15 11 11 7 2 8 33 41 46 46 52 56 58 54 47 64 58 96
335 345 342 9 350 45 33 18 34 36 50 64 68 59 61 74 85 86 71 52 36 26 22 27 25 20 18 19 20 14 15 27 54 63 56 49 54 59 66 74 75 64 75 82